User: anonymous   Login
Location: Colebrook
(42.0017°N, 73.0973°W)
Time: 10:26:13
(UTC-04:00)
Language:

S-56A Canister/Altair - Orbit

View from above orbital plane
View from above orbital plane
View from above satellite
View from above satellite

Ground track
Ground track

The orbit data is extracted from the following two-line orbital elements,

1 00082U 61004B   21297.78523879 -.00000062  00000-0 -17991-4 0  9992
2 00082  38.8603 167.9501 1176225 309.2484  40.9423 12.26015825868481
Epoch (UTC): 24 October 2021 18:50:44
Eccentricity: 0.1176225
inclination: 38.8603°
perigee height: 632 km
apogee height: 2501 km
right ascension of ascending node: 167.9501°
argument of perigee: 309.2484°
revolutions per day: 12.26015825
mean anomaly at epoch: 40.9423°
orbit number at epoch: 86848

The dashed part of the orbit path shows where the satellite is in the earth's shadow,  

DLR